Starlink 32042

operational
NORAD ID: 60108 Int'l Des: 2024-117 Owner: SPXS Country: US Constellation: starlink
LEOCIRCULAR

Starlink 32042について

説明を読み込み中...

リアルタイム位置

3D地球を読み込み中...

次回通過

高度履歴

Altitude vs Time

uPlot chart will show altitude changes over time

軌道要素

1 60108U 24117T 26036.12962726 -.00005620 00000-0 -17805-3 0 9991
2 60108 53.1600 188.1974 0000731 105.7270 254.3812 15.30148450 91908
Epoch: Feb 5, 2026 • Age: 14 hours

現在のステータス

高度 481.3 km
速度 7.63 km/s
衛星直下点 52.17°N, 140.35°W
打ち上げ日 Jun 23, 2024
運用期間 1.6 years
タイプ internet

技術仕様

分類 Payload
質量 730.00 kg
乾燥質量 700.00 kg
総質量 730.00 kg
長さ 0.30 m
直径 4.10 m
スパン 29.00 m
形状 Box + pan
製造者 SPXS
バスタイプ Starlink V2M
フェーズステータス In Orbit
所有者/国 SPXS/US

大規模コンステレーション

Loading constellations...